Skip Page Navigation
NASA JPL Caltech
NASA Logo - Jet Propulsion Laboratory + View the NASA Portal
+ Center for Near-Earth Object Studies
JPL Home Earth Solar System Stars & Galaxies Technology
JPL Solar System Dynamics
BODIES ORBITS EPHEMERIDES TOOLS PHYSICAL DATA DISCOVERY FAQ SITE MAP
IMPORTANT: The SSD Announcement email list is now available. Major changes are coming in the near future, including possible hostname and/or URL changes. To be notified of such changes, subscribe to this email list.

Please visit this page for more details.


JPL Small-Body Database Browser
Search: [ help ]  
487208 (2014 OZ375)
Classification: Main-belt Asteroid          SPK-ID: 2487208
Ephemeris | Orbit Diagram | Orbital Elements | Mission Design | Physical Parameters | Discovery Circumstances ]

[ show orbit diagram ]
Orbital Elements at Epoch 2459000.5 (2020-May-31.0) TDB
Reference: JPL 14 (heliocentric ecliptic J2000)
 Element Value Uncertainty (1-sigma)   Units 
e .1564802893726383 8.1462e-08  
a 2.570859077084188 4.976e-08 au
q 2.168570304765781 2.1304e-07 au
i 11.97111494422665 8.4343e-06 deg
node 116.68769529055 2.5295e-05 deg
peri 159.0904924155462 3.4119e-05 deg
M 175.6903015313174 2.922e-05 deg
tp 2458265.713580206373
(2018-May-27.21358021)
0.0001074 TDB
period 1505.621589923411
4.12
4.3713e-05
1.197e-07
d
yr
n .2391039039353259 6.942e-09 deg/d
Q 2.973147849402596 5.7547e-08 au
  Orbit Determination Parameters
   # obs. used (total)      88  
   data-arc span      3879 days (10.62 yr)  
   first obs. used      2009-03-15  
   last obs. used      2019-10-28  
   planetary ephem.      DE431  
   SB-pert. ephem.      SB431-N16  
   condition code      0  
   norm. resid. RMS      .52971  
   source      ORB  
   producer      Otto Matic  
   solution date      2019-Nov-08 18:44:03  

Additional Information
 Earth MOID = 1.15628 au 
 Jupiter MOID = 2.19144 au 
 T_jup = 3.382 
[ show covariance matrix ]

Ephemeris | Orbit Diagram | Orbital Elements | Mission Design | Physical Parameters | Discovery Circumstances ]

Physical Parameter Table
Parameter Symbol Value Units Sigma Reference Notes
absolute magnitude H 17.1   n/a MPO456348  

487208 (2014 OZ375)          Discovered 2014-Jun-05 by Pan-STARRS 1 at Haleakala
Reference: Last Updated: 2017-03-14
Ephemeris | Orbit Diagram | Orbital Elements | Mission Design | Physical Parameters | Discovery Circumstances ]
ABOUT SSD CREDITS/AWARDS PRIVACY/COPYRIGHT GLOSSARY LINKS
FirstGov 2020-Jun-03 01:29 UT
(server date/time)  
NASA Home Page
Site Manager:   Ryan S. Park
Webmaster  Alan B. Chamberlin